Weather History for San Angelo, TX

Change the Weather History Date:

Wednesday, August 7, 2013

  Actual Average Record
Temperature  
Mean Temperature 92 °F 84 °F  
Max Temperature 108 °F 96 °F 108 °F (2013)
Min Temperature 75 °F 72 °F 59 °F (1990)
Degree Days  
Heating Degree Days 0 0  
Month to date heating degree days 0 0  
Since 1 June heating degree days 0 0  
Since 1 July heating degree days 0 0  
Cooling Degree Days 27 19  
Month to date cooling degree days 172 133  
Year to date cooling degree days 1883 1620  
Since 1 June cooling degree days 1287 1160  
Growing Degree Days 42 (Base 50)    
Moisture  
Dew Point 62 °F    
Average Humidity 40    
Maximum Humidity 62    
Minimum Humidity 18    
Precipitation  
Precipitation 0.04 in 0.05 in 1.63 in (1997)
Month to date precipitation 0.05 0.38  
Year to date precipitation 11.00 12.19  
Sea Level Pressure  
Sea Level Pressure 29.82 in    
Wind  
Wind Speed 9 mph (SSW)    
Max Wind Speed 30 mph    
Max Gust Speed 39 mph    
Visibility 10 miles    
Events Thunderstorm    
T = Trace of Precipitation, MM = Missing Value Source: NWS Daily Summary

Daily Weather History Graph

Daily Weather History Graph

Search for Another Location

Airport:

Trip Planner

Search our weather history database for the weather conditions in past years. The results will help you decide how hot, cold, wet, or windy it might be!

Date:

Astronomy

Aug. 07, 2013 Rise Set
Actual Time 7:02 AM CDT 8:32 PM CDT
Civil Twilight 6:36 AM CDT 8:58 PM CDT
Nautical Twilight 6:05 AM CDT 9:29 PM CDT
Astronomical Twilight 5:32 AM CDT 10:01 PM CDT
Moon 7:45 AM CDT (8/7) 8:49 PM CDT (8/7)
Length of Visible Light 14h 21m
Length of Day
13h 29m
New Moon, 1% of the Moon is Illuminated
Aug 7
New Moon
Aug 14
First Quarter
Aug 20
Full
Aug 28
Last Quarter
Sep 5
New

Hourly Weather History & Observations

Time (CDT) Temp. Heat Index Dew Point Humidity Pressure Visibility Wind Dir Wind Speed Gust Speed Precip Events Conditions
12:51 AM 80.1 °F 81.5 °F 63.0 °F 56% 29.81 in 10.0 mi SSE 6.9 mph - N/A   Clear
1:51 AM 78.1 °F - 64.0 °F 62% 29.82 in 10.0 mi SSE 6.9 mph - N/A   Clear
2:51 AM 77.0 °F - 63.0 °F 62% 29.81 in 10.0 mi Calm Calm - N/A   Clear
3:51 AM 75.9 °F - 61.0 °F 60% 29.82 in 10.0 mi South 6.9 mph - N/A   Clear
4:51 AM 79.0 °F - 60.1 °F 52% 29.81 in 10.0 mi South 9.2 mph - N/A   Clear
5:51 AM 79.0 °F - 62.1 °F 56% 29.82 in 10.0 mi SSW 8.1 mph - N/A   Clear
6:51 AM 78.1 °F - 64.0 °F 62% 29.83 in 10.0 mi SW 6.9 mph - N/A   Clear
7:51 AM 78.1 °F - 64.9 °F 64% 29.84 in 10.0 mi West 5.8 mph - N/A   Clear
8:51 AM 82.9 °F 85.0 °F 66.0 °F 56% 29.86 in 10.0 mi SSW 11.5 mph 17.3 mph N/A   Clear
9:51 AM 88.0 °F 89.6 °F 64.9 °F 46% 29.86 in 10.0 mi SSW 18.4 mph 25.3 mph N/A   Clear
10:51 AM 93.9 °F 95.6 °F 64.0 °F 37% 29.84 in 10.0 mi SW 15.0 mph 21.9 mph N/A   Clear
11:51 AM 98.1 °F 98.6 °F 61.0 °F 29% 29.84 in 10.0 mi WSW 12.7 mph 20.7 mph N/A   Clear
12:51 PM 100.0 °F 100.7 °F 60.1 °F 27% 29.83 in 10.0 mi WSW 11.5 mph - N/A   Clear
1:51 PM 102.0 °F 102.7 °F 60.1 °F 25% 29.81 in 10.0 mi SSW 5.8 mph - N/A   Clear
2:51 PM 105.1 °F 105.0 °F 57.9 °F 21% 29.79 in 10.0 mi South 10.4 mph - N/A   Clear
3:51 PM 106.0 °F 104.5 °F 54.0 °F 18% 29.76 in 10.0 mi SSW 5.8 mph - N/A   Clear
4:51 PM 106.0 °F 105.1 °F 55.9 °F 19% 29.72 in 10.0 mi South 9.2 mph - N/A   Scattered Clouds
5:51 PM 106.0 °F 105.1 °F 55.0 °F 19% 29.70 in 10.0 mi South 11.5 mph 18.4 mph N/A   Partly Cloudy
6:51 PM 102.9 °F 102.4 °F 57.0 °F 22% 29.70 in 10.0 mi South 12.7 mph - N/A   Partly Cloudy
7:42 PM 86.0 °F 86.6 °F 62.6 °F 45% 29.84 in 10.0 mi West 23.0 mph 35.7 mph N/A   Partly Cloudy
7:51 PM 84.9 °F 85.9 °F 63.0 °F 48% 29.75 in 10.0 mi West 18.4 mph 29.9 mph N/A Thunderstorm Partly Cloudy
8:46 PM 86.0 °F 87.3 °F 64.4 °F 48% 29.86 in 10.0 mi NW 17.3 mph 26.5 mph 0.00 in   Clear
8:51 PM 86.0 °F 87.3 °F 64.0 °F 48% 29.78 in 10.0 mi NW 13.8 mph - 0.00 in   Partly Cloudy
9:32 PM 84.2 °F 85.6 °F 64.4 °F 51% 29.92 in 10.0 mi East 12.7 mph 17.3 mph N/A Thunderstorm Thunderstorm
9:42 PM 84.2 °F 86.6 °F 66.2 °F 55% 29.91 in 10.0 mi East 16.1 mph 23.0 mph N/A Thunderstorm Thunderstorm
9:51 PM 81.0 °F 83.3 °F 66.9 °F 62% 29.84 in 10.0 mi East 10.4 mph 19.6 mph N/A Thunderstorm Thunderstorm
10:18 PM 82.4 °F 84.6 °F 66.2 °F 58% 29.91 in 10.0 mi East 6.9 mph - N/A   Scattered Clouds
10:51 PM 82.0 °F 84.5 °F 66.9 °F 60% 29.84 in 10.0 mi Calm Calm - N/A   Mostly Cloudy
11:11 PM 80.6 °F 82.7 °F 66.2 °F 61% 29.93 in 10.0 mi SSE 6.9 mph - N/A Thunderstorm Mostly Cloudy
11:51 PM 82.0 °F 84.1 °F 66.0 °F 58% 29.86 in 10.0 mi South 5.8 mph - N/A Thunderstorm Thunderstorm